Home   Weather   Fairfield Farms   Past weeks
Flag for USA

Past Weather in Fairfield Farms, Georgia, USA — Yesterday and Last 2 Weeks

Now
47 °F

Clear.


Feels Like: 47 °F
Forecast: 57 / 38 °F
Wind: No wind

Location: Gwinnett County-Briscoe Field Airport

Current Time: Dec 5, 2019 at 7:51:58 pm

Latest Report: Dec 5, 2019 at 6:56 pm


Visibility: 10 mi

Pressure: 30.19 "Hg

Humidity: 56%

Dew Point: 32 °F

Location of Fairfield FarmsLocation

Past Weather in Fairfield Farms — Graph

°F

Fairfield Farms Temperature Yesterday

Maximum temperature yesterday: 58 °F (at 1:56 pm)
Minimum temperature yesterday: 35 °F (at 4:56 am)
Average temperature yesterday: 46 °F

High & Low Weather Summary for the Past Weeks

 TemperatureHumidityPressure
High75 °F (Nov 27, 1:56 pm)100% (Nov 21, 3:56 am)30.34 "Hg (Nov 21, 3:56 am)
Low33 °F (Dec 3, 6:56 am)23% (Nov 27, 4:56 pm)29.61 "Hg (Dec 1, 2:56 pm)
Average52 °F68%30.01 "Hg
* Reported Nov 20 5:56 pm — Dec 5 5:56 pm, Fairfield Farms. Weather by CustomWeather, © 2019

Note: Actual official high and low records may vary slightly from our data, if they occured in-between our weather recording intervals... More about our weather records

Fairfield Farms Weather History for the Previous 24 Hours

Scroll right to see more
 ConditionsComfort  
Time TempWeatherWind HumidityBarometerVisibility
5:56 pm
Thu, Dec 5
53 °FClear.No wind38%30.17 "Hg10 mi
4:56 pm61 °FSunny.3 mph27%30.15 "Hg9 mi
3:56 pm63 °FSunny.5 mph25%30.14 "Hg10 mi
2:56 pm63 °FSunny.7 mph24%30.14 "Hg10 mi
1:56 pm63 °FSunny.No wind24%30.14 "Hg10 mi
12:56 pm62 °FSunny.3 mph25%30.15 "Hg10 mi
11:56 am58 °FSunny.No wind32%30.17 "Hg9 mi
10:56 am56 °FSunny.6 mph36%30.18 "Hg4 mi
9:56 am52 °FSunny.6 mph43%30.17 "Hg10 mi
8:56 am46 °FSunny.6 mph56%30.14 "Hg10 mi
7:56 am41 °FSunny.No wind74%30.11 "Hg8 mi
6:56 am40 °FClear.No wind70%30.09 "Hg10 mi
5:56 am43 °FClear.5 mph62%30.06 "Hg10 mi
4:56 am44 °FClear.5 mph60%30.05 "Hg10 mi
3:56 am45 °FClear.5 mph63%30.03 "Hg10 mi
2:56 am46 °FClear.7 mph61%30.02 "Hg10 mi
1:56 am47 °FClear.7 mph61%30.01 "Hg10 mi
12:56 am47 °FClear.8 mph61%30.01 "Hg10 mi
11:56 pm
Wed, Dec 4
48 °FClear.5 mph59%30.00 "Hg10 mi
10:56 pm49 °FClear.7 mph57%29.98 "Hg10 mi
9:56 pm49 °FClear.6 mph55%29.98 "Hg10 mi
8:56 pm49 °FClear.10 mph55%29.97 "Hg10 mi
7:56 pm49 °FClear.6 mph55%29.97 "Hg10 mi
Weather by CustomWeather, © 2019

See weather overview

Advertising